| time (UTC) | temp C | wind direction | speed KPH | gust KPH | rain 1hr cm | rain 24hr cm | rain mn cm | humidity % | barometer mb |
| 20260503005204 | 10 | 281 | 1.6 | 4.8 | 0.00 | 0.00 | 0.00 | 98 | |
| 20260503004205 | 10 | 277 | 3.2 | 6.4 | 0.00 | 0.00 | 0.00 | 97 | |
| 20260503003203 | 10 | 270 | 0.0 | 3.2 | 0.00 | 0.00 | 0.00 | 97 | |
| 20260503002203 | 11 | 278 | 0.0 | 3.2 | 0.00 | 0.00 | 0.00 | 97 | |
| 20260503001203 | 11 | 279 | 1.6 | 4.8 | 0.00 | 0.00 | 0.00 | 97 | |
| 20260503000204 | 11 | 278 | 0.0 | 1.6 | 0.00 | 0.00 | 0.00 | 98 | |
| 20260502235203 | 11 | 280 | 0.0 | 1.6 | 0.00 | 0.00 | 0.00 | 97 | |
| 20260502234415 | 11 | 281 | 0.0 | 1.6 | 0.00 | 0.00 | 0.00 | 97 | |
| 20260502233203 | 11 | 283 | 0.0 | 3.2 | 0.00 | 0.00 | 0.00 | 97 | |
| 20260502232203 | 11 | 280 | 0.0 | 1.6 | 0.00 | 0.00 | 0.00 | 97 | |
| 20260502231204 | 11 | 281 | 0.0 | 1.6 | 0.00 | 0.00 | 0.00 | 97 | |
| 20260502230414 | 11 | 290 | 0.0 | 1.6 | 0.00 | 0.00 | 0.00 | 97 | |
| 20260502225415 | 11 | 357 | 0.0 | 1.6 | 0.00 | 0.00 | 0.00 | 97 | |
| 20260502224204 | 11 | 319 | 0.0 | 0.0 | 0.00 | 0.00 | 0.00 | 97 | |
| 20260502223204 | 11 | 321 | 0.0 | 1.6 | 0.00 | 0.00 | 0.00 | 97 | |
| 20260502222204 | 11 | 324 | 1.6 | 3.2 | 0.00 | 0.00 | 0.00 | 97 | |
| 20260502221203 | 11 | 333 | 0.0 | 4.8 | 0.00 | 0.00 | 0.00 | 97 | |
| 20260502220204 | 11 | 331 | 1.6 | 4.8 | 0.00 | 0.00 | 0.00 | 97 | |
| 20260502215415 | 11 | 319 | 0.0 | 3.2 | 0.00 | 0.00 | 0.00 | 97 | |
| 20260502214204 | 11 | 323 | 1.6 | 6.4 | 0.00 | 0.00 | 0.00 | 97 | |
| 20260502213204 | 11 | 314 | 0.0 | 3.2 | 0.00 | 0.00 | 0.00 | 97 | |
| 20260502212204 | 11 | 300 | 1.6 | 4.8 | 0.00 | 0.00 | 0.00 | 97 | |
| 20260502211204 | 11 | 291 | 1.6 | 6.4 | 0.00 | 0.00 | 0.00 | 97 | |
| 20260502210205 | 11 | 238 | 0.0 | 3.2 | 0.00 | 0.00 | 0.00 | 97 | |
| 20260502205416 | 11 | 245 | 0.0 | 1.6 | 0.00 | 0.00 | 0.00 | 97 | |
| 20260502204204 | 11 | 253 | 1.6 | 3.2 | 0.00 | 0.00 | 0.00 | 97 | |
| 20260502203204 | 11 | 244 | 0.0 | 1.6 | 0.00 | 0.00 | 0.00 | 97 | |
| 20260502202414 | 11 | 247 | 1.6 | 3.2 | 0.00 | 0.00 | 0.00 | 96 | |
| 20260502201203 | 11 | 239 | 1.6 | 6.4 | 0.00 | 0.00 | 0.00 | 96 | |
| 20260502200416 | 11 | 230 | 1.6 | 3.2 | 0.00 | 0.00 | 0.00 | 96 | |
| 20260502195417 | 11 | 229 | 1.6 | 4.8 | 0.00 | 0.00 | 0.00 | 96 | |
| 20260502194203 | 11 | 218 | 0.0 | 3.2 | 0.00 | 0.00 | 0.00 | 96 | |
| 20260502193204 | 12 | 254 | 0.0 | 1.6 | 0.00 | 0.00 | 0.00 | 96 | |
| 20260502192203 | 12 | 256 | 0.0 | 1.6 | 0.00 | 0.00 | 0.00 | 96 | |
| 20260502191203 | 12 | 260 | 1.6 | 3.2 | 0.00 | 0.00 | 0.00 | 96 | |
| 20260502190416 | 12 | 261 | 0.0 | 1.6 | 0.00 | 0.00 | 0.00 | 96 | |
| 20260502185203 | 12 | 247 | 0.0 | 1.6 | 0.00 | 0.00 | 0.00 | 96 | |
| 20260502184203 | 12 | 231 | 1.6 | 4.8 | 0.00 | 0.00 | 0.00 | 95 | |
| 20260502183204 | 12 | 223 | 1.6 | 4.8 | 0.00 | 0.00 | 0.00 | 95 | |
| 20260502182203 | 12 | 220 | 1.6 | 6.4 | 0.00 | 0.00 | 0.00 | 95 | |
| 20260502181416 | 12 | 218 | 0.0 | 1.6 | 0.00 | 0.00 | 0.00 | 95 | |
| 20260502180203 | 12 | 136 | 0.0 | 1.6 | 0.00 | 0.00 | 0.00 | 95 | |
| 20260502170417 | 12 | 20 | 1.6 | 4.8 | 0.00 | 0.00 | 0.00 | 94 | |
| 20260502163205 | 13 | 330 | 1.6 | 6.4 | 0.00 | 0.00 | 0.00 | 93 | |
| 20260502162205 | 13 | 295 | 1.6 | 3.2 | 0.00 | 0.00 | 0.00 | 92 | |
| 20260502161205 | 13 | 276 | 1.6 | 4.8 | 0.00 | 0.00 | 0.00 | 91 | |
| 20260502160413 | 13 | 253 | 1.6 | 4.8 | 0.00 | 0.00 | 0.00 | 90 | |
| 20260502152205 | 15 | 138 | 1.6 | 6.4 | 0.00 | 0.00 | 0.00 | 80 | |
| 20260502151205 | 15 | 135 | 1.6 | 8.0 | 0.00 | 0.00 | 0.00 | 76 | |
| 20260502150205 | 16 | 119 | 1.6 | 3.2 | 0.00 | 0.00 | 0.00 | 73 | |
| 20260502130205 | 17 | 197 | 1.6 | 3.2 | 0.00 | 0.00 | 0.00 | 63 | |
| 20260502123205 | 17 | 244 | 1.6 | 4.8 | 0.00 | 0.03 | 0.00 | 63 | |
| 20260502122205 | 17 | 220 | 1.6 | 4.8 | 0.00 | 0.03 | 0.00 | 64 | |
| 20260502121205 | 17 | 259 | 1.6 | 8.0 | 0.00 | 0.03 | 0.00 | 64 | |
| 20260502120416 | 16 | 300 | 3.2 | 6.4 | 0.00 | 0.03 | 0.00 | 64 | |
| 20260502115205 | 17 | 319 | 3.2 | 6.4 | 0.00 | 0.03 | 0.00 | 65 | |
| 20260502114205 | 17 | 213 | 1.6 | 4.8 | 0.00 | 0.03 | 0.00 | 64 | |
| 20260502113418 | 17 | 237 | 1.6 | 6.4 | 0.00 | 0.03 | 0.00 | 65 | |
| 20260502112205 | 16 | 276 | 1.6 | 4.8 | 0.00 | 0.03 | 0.00 | 65 | |
| 20260502111205 | 16 | 236 | 1.6 | 4.8 | 0.00 | 0.03 | 0.00 | 67 | |
| 20260502110205 | 16 | 195 | 1.6 | 6.4 | 0.00 | 0.03 | 0.00 | 67 | |
| 20260502105204 | 16 | 201 | 3.2 | 8.0 | 0.00 | 0.03 | 0.00 | 66 | |
| 20260502104418 | 16 | 207 | 1.6 | 4.8 | 0.00 | 0.03 | 0.00 | 65 | |
| 20260502103205 | 16 | 198 | 3.2 | 6.4 | 0.00 | 0.03 | 0.00 | 67 | |
| 20260502102205 | 16 | 185 | 3.2 | 6.4 | 0.00 | 0.03 | 0.00 | 68 | |
| 20260502101205 | 16 | 159 | 1.6 | 8.0 | 0.00 | 0.03 | 0.00 | 69 | |
| 20260502100205 | 15 | 132 | 3.2 | 8.0 | 0.00 | 0.03 | 0.00 | 70 | |
| 20260502091204 | 14 | 197 | 3.2 | 4.8 | 0.00 | 0.03 | 0.00 | 72 | |
| 20260502090205 | 15 | 214 | 1.6 | 3.2 | 0.00 | 0.03 | 0.00 | 72 | |
| 20260502071205 | 12 | 160 | 0.0 | 3.2 | 0.00 | 0.03 | 0.00 | 91 | |
| 20260502070204 | 11 | 180 | 0.0 | 1.6 | 0.00 | 0.03 | 0.00 | 92 | |
| 20260502065204 | 11 | 184 | 0.0 | 3.2 | 0.00 | 0.03 | 0.00 | 94 | |
| 20260502064204 | 11 | 182 | 0.0 | 3.2 | 0.00 | 0.03 | 0.00 | 95 | |
| 20260502063205 | 10 | 193 | 0.0 | 3.2 | 0.00 | 0.03 | 0.00 | 95 | |
| 20260502062205 | 10 | 199 | 1.6 | 4.8 | 0.00 | 0.03 | 0.00 | 96 | |
| 20260502061204 | 9 | 196 | 0.0 | 3.2 | 0.00 | 0.03 | 0.00 | 96 | |
| 20260502060204 | 9 | 191 | 1.6 | 3.2 | 0.00 | 0.03 | 0.00 | 96 | |
| 20260502055204 | 9 | 185 | 1.6 | 3.2 | 0.00 | 0.03 | 0.00 | 96 | |
| 20260502054204 | 8 | 186 | 1.6 | 3.2 | 0.00 | 0.03 | 0.00 | 96 | |
| 20260502053204 | 8 | 177 | 1.6 | 3.2 | 0.00 | 0.03 | 0.00 | 96 | |
| 20260502052204 | 8 | 150 | 0.0 | 1.6 | 0.00 | 0.03 | 0.00 | 96 | |
| 20260502051204 | 8 | 154 | 0.0 | 1.6 | 0.00 | 0.03 | 0.00 | 96 | |
| 20260502050204 | 8 | 154 | 1.6 | 3.2 | 0.00 | 0.03 | 0.00 | 96 | |
| 20260502045205 | 8 | 153 | 1.6 | 3.2 | 0.00 | 0.03 | 0.00 | 96 | |
| 20260502044204 | 8 | 156 | 1.6 | 1.6 | 0.00 | 0.03 | 0.00 | 96 | |
| 20260502043204 | 8 | 172 | 0.0 | 3.2 | 0.00 | 0.03 | 0.00 | 96 | |
| 20260502042204 | 8 | 169 | 0.0 | 1.6 | 0.00 | 0.03 | 0.00 | 95 | |
| 20260502041205 | 8 | 164 | 0.0 | 1.6 | 0.00 | 0.03 | 0.00 | 95 | |
| 20260502040204 | 8 | 160 | 1.6 | 3.2 | 0.00 | 0.03 | 0.00 | 95 | |
| 20260502035204 | 8 | 175 | 1.6 | 3.2 | 0.00 | 0.03 | 0.00 | 95 | |
| 20260502034204 | 8 | 185 | 1.6 | 3.2 | 0.00 | 0.03 | 0.00 | 95 | |
| 20260502033204 | 8 | 172 | 1.6 | 4.8 | 0.00 | 0.03 | 0.00 | 95 | |
| 20260502032414 | 8 | 174 | 1.6 | 3.2 | 0.00 | 0.03 | 0.00 | 94 | |
| 20260502031415 | 8 | 201 | 0.0 | 3.2 | 0.00 | 0.03 | 0.00 | 94 | |
| 20260502030205 | 9 | 206 | 1.6 | 1.6 | 0.00 | 0.03 | 0.00 | 94 | |
| 20260502025204 | 9 | 204 | 0.0 | 3.2 | 0.00 | 0.03 | 0.00 | 94 | |
| 20260502024205 | 9 | 201 | 0.0 | 3.2 | 0.00 | 0.03 | 0.00 | 94 | |
| 20260502023204 | 9 | 203 | 1.6 | 6.4 | 0.00 | 0.03 | 0.00 | 94 | |
| 20260502022204 | 9 | 204 | 1.6 | 3.2 | 0.00 | 0.03 | 0.00 | 94 | |
| 20260502021204 | 9 | 197 | 1.6 | 4.8 | 0.00 | 0.03 | 0.00 | 94 | |
| 20260502020205 | 8 | 177 | 1.6 | 4.8 | 0.00 | 0.03 | 0.00 | 93 | |
| 20260502015203 | 8 | 156 | 1.6 | 3.2 | 0.00 | 0.03 | 0.00 | 92 | |
| 20260502014204 | 9 | 158 | 0.0 | 1.6 | 0.00 | 0.03 | 0.00 | 92 | |
| 20260502013204 | 9 | 172 | 0.0 | 3.2 | 0.00 | 0.03 | 0.00 | 92 | |
| 20260502012203 | 9 | 196 | 0.0 | 1.6 | 0.00 | 0.03 | 0.00 | 92 | |
| 20260502011417 | 9 | 211 | 0.0 | 1.6 | 0.00 | 0.03 | 0.00 | 92 | |
| 20260502010204 | 9 | 244 | 0.0 | 1.6 | 0.00 | 0.03 | 0.00 | 92 |